sat.trackr.live / text

‹ back to catalog

INTELSAT 34 (IS-34)

NORAD 40874 · 2015-039A

PAYLOAD ACTIVE UNKNOWN

§ Identity

Operator
Country
ITSO
Launch date
2015-08-20
Launch site
FRGUI
Launch vehicle
Mass (kg)
RCS (m²)
16.57

Purposes: comms

External: N2YO · Heavens-Above · Gunter

§ Orbital elements

Epoch: 2026-05-24T20:38:09.985056Z

Period
1,436.10 min
Inclination
0.0097°
Eccentricity
0.0000602
Mean motion
1.00271651 rev/d
Perigee alt
35,784.1 km
Apogee alt
35,789.2 km
Semi-major
42,164.8 km
B*
0.0000e+0
RAAN
314.0541°
Arg perigee
28.1116°
Mean anomaly
154.3402°
Rev number
3,940

§ Raw data

INTELSAT 34 (IS-34)1 40874U 15039A   26144.85983779 -.00000289  00000+0  00000+0 0  99922 40874   0.0097 314.0541 0000602  28.1116 154.3402  1.00271651 39404

JSON: /api/v1/satellites/40874 · /tle

For live sub-satellite position, see the globe view (requires WebGL).

§ Visibility from observer

Set your observer location to see the next 7 days of passes ≥ 10°. The values pass through the URL so the page stays shareable.

No JS? Fill the form by hand. The geolocation button needs JavaScript.